Guymon, OK

4:04 PM CST on February 23, 2017 (GMT -0600)
Guymon Municipal

Weather History for KGUY - October, 2013

Change the Weather History Date:

Saturday, October 26, 2013

  Actual Average Record
Temperature  
Mean Temperature 50 °F 54 °F  
Max Temperature 64 °F 69 °F 90 °F (2014)
Min Temperature 36 °F 39 °F 26 °F (2003)
Degree Days  
Heating Degree Days 15 12  
Month to date heating degree days 220 203  
Since 1 July heating degree days 228 246  
Cooling Degree Days 0 0  
Month to date cooling degree days 25 25  
Year to date cooling degree days 1846 1479  
Growing Degree Days 2 (Base 50)    
Moisture  
Dew Point 36 °F    
Average Humidity 53    
Maximum Humidity 83    
Minimum Humidity 23    
Precipitation  
Precipitation 0.00 in 0.04 in 0.18 in (2011)
Month to date precipitation 0.69 1.44  
Year to date precipitation 14.01 18.00  
Snow  
Snow 0.00 in - - ()
Month to date snowfall T  
Since 1 July snowfall T  
Since 1 September snowfall T  
Snow Depth 0.00 in    
Sea Level Pressure  
Sea Level Pressure 30.12 in    
Wind  
Wind Speed 13 mph (NNW)    
Max Wind Speed 29 mph    
Max Gust Speed 37 mph    
Visibility 10 miles    
Events      
T = Trace of Precipitation, MM = Missing Value Source: NWS Daily Summary

Daily Weather History Graph

Daily Weather History Graph

Search for Another Location

Airport or City:

Trip Planner

Search our weather history database for the weather conditions in past years. The results will help you decide how hot, cold, wet, or windy it might be!

Date:

Astronomy

Oct. 26, 2013 Rise Set
Actual Time 8:04 AM CDT 6:55 PM CDT
Civil Twilight 7:37 AM CDT 7:21 PM CDT
Nautical Twilight 7:07 AM CDT 7:52 PM CDT
Astronomical Twilight 6:37 AM CDT 8:22 PM CDT
Moon 12:20 AM CDT (10/26) 2:19 PM CDT (10/26)
Length of Visible Light 11h 44m
Length of Day
10h 51m
Waning Gibbous, 53% of the Moon is Illuminated
Oct 26
Waning Gibbous
Oct 26
Last Quarter
Nov 3
New
Nov 9
First Quarter
Nov 17
Full

Hourly Weather History & Observations

Time (CDT) Temp. Windchill Dew Point Humidity Pressure Visibility Wind Dir Wind Speed Gust Speed Precip Events Conditions
12:53 AM 55.0 °F - 46.0 °F 72% 30.04 in 10.0 mi SSW 16.1 mph - 0.00 in   Overcast
1:53 AM 54.0 °F - 46.0 °F 75% 30.02 in 10.0 mi SSW 13.8 mph - N/A   Partly Cloudy
2:53 AM 52.0 °F - 45.0 °F 77% 30.01 in 10.0 mi SSW 10.4 mph - N/A   Clear
3:53 AM 52.0 °F - 46.0 °F 80% 30.01 in 10.0 mi SW 10.4 mph - N/A   Scattered Clouds
4:53 AM 52.0 °F - 46.0 °F 80% 30.00 in 10.0 mi SW 12.7 mph - N/A   Scattered Clouds
5:53 AM 52.0 °F - 45.0 °F 77% 30.01 in 10.0 mi West 10.4 mph - N/A   Mostly Cloudy
6:53 AM 48.0 °F - 43.0 °F 83% 30.04 in 10.0 mi WSW 5.8 mph - N/A   Clear
7:53 AM 53.1 °F - 42.1 °F 66% 30.05 in 10.0 mi NNW 17.3 mph - N/A   Scattered Clouds
8:53 AM 51.1 °F - 39.9 °F 66% 30.09 in 10.0 mi North 18.4 mph - N/A   Clear
9:53 AM 52.0 °F - 39.9 °F 63% 30.13 in 10.0 mi North 24.2 mph 31.1 mph N/A   Clear
10:53 AM 55.0 °F - 39.0 °F 55% 30.15 in 10.0 mi North 29.9 mph 35.7 mph N/A   Clear
11:53 AM 57.0 °F - 35.1 °F 44% 30.17 in 10.0 mi NNE 25.3 mph 35.7 mph N/A   Clear
12:53 PM 61.0 °F - 36.0 °F 39% 30.17 in 10.0 mi North 20.7 mph 32.2 mph N/A   Clear
1:53 PM 62.1 °F - 33.1 °F 34% 30.17 in 10.0 mi North 24.2 mph 33.4 mph N/A   Clear
2:53 PM 63.0 °F - 35.1 °F 35% 30.16 in 10.0 mi NNE 24.2 mph 31.1 mph N/A   Clear
3:53 PM 63.0 °F - 33.1 °F 33% 30.16 in 10.0 mi North 19.6 mph 25.3 mph N/A   Clear
4:53 PM 60.1 °F - 30.0 °F 32% 30.17 in 10.0 mi North 11.5 mph - N/A   Clear
5:53 PM 62.1 °F - 25.0 °F 24% 30.16 in 10.0 mi NNE 15.0 mph - N/A   Clear
6:53 PM 54.0 °F - 27.0 °F 35% 30.19 in 10.0 mi North 6.9 mph - N/A   Clear
7:53 PM 53.1 °F - 28.0 °F 38% 30.19 in 10.0 mi North 3.5 mph - N/A   Clear
8:53 PM 50.0 °F - 26.1 °F 39% 30.21 in 9.0 mi Calm Calm - N/A   Clear
9:53 PM 45.0 °F - 28.0 °F 52% 30.22 in 9.0 mi Calm Calm - N/A   Clear
10:53 PM 42.1 °F 40.2 °F 28.9 °F 60% 30.21 in 10.0 mi West 3.5 mph - N/A   Clear
11:53 PM 37.9 °F 35.5 °F 28.0 °F 68% 30.20 in 10.0 mi WSW 3.5 mph - N/A   Clear